Weather History for Tacoma, WA

Change the Weather History Date:

Friday, May 3, 2013

  Actual Average Record
Temperature  
Mean Temperature 58 °F -  
Max Temperature 69 °F 58 °F 77 °F (1992)
Min Temperature 48 °F 39 °F 32 °F (1974)
Degree Days  
Heating Degree Days 6    
Growing Degree Days 8 (Base 50)    
Moisture  
Dew Point 43 °F    
Average Humidity 56    
Maximum Humidity 71    
Minimum Humidity 39    
Precipitation  
Precipitation 0.00 in - - ()
Sea Level Pressure  
Sea Level Pressure 30.34 in    
Wind  
Wind Speed 6 mph (NNE)    
Max Wind Speed 16 mph    
Max Gust Speed 24 mph    
Visibility 10 miles    
Events      
Averages and records for this station are not official NWS values.
T = Trace of Precipitation, MM = Missing Value Source: NWS Daily Summary

Daily Weather History Graph

Daily Weather History Graph

Search for Another Location

Airport:

Trip Planner

Search our weather history database for the weather conditions in past years. The results will help you decide how hot, cold, wet, or windy it might be!

Date:

Astronomy

May. 03, 2013 Rise Set
Actual Time 5:50 AM PDT 8:24 PM PDT
Civil Twilight 5:15 AM PDT 8:58 PM PDT
Nautical Twilight 4:32 AM PDT 9:42 PM PDT
Astronomical Twilight 3:42 AM PDT 10:32 PM PDT
Moon 2:42 AM PDT (5/3) 2:01 PM PDT (5/3)
Length of Visible Light 15h 42m
Length of Day
14h 33m
Waning Crescent, 36% of the Moon is Illuminated
May 3
Waning Crescent
May 9
New
May 17
First Quarter
May 24
Full
May 31
Last Quarter

Hourly Weather History & Observations

Time (PDT) Temp. Dew Point Humidity Pressure Visibility Wind Dir Wind Speed Gust Speed Precip Events Conditions
12:58 AM 51.3 °F 37.4 °F 59% 30.40 in 10.0 mi Variable 2.3 mph - N/A   Clear
1:58 AM 49.8 °F 37.8 °F 63% 30.40 in 10.0 mi NNE 3.5 mph - N/A   Clear
2:58 AM 48.9 °F 37.8 °F 65% 30.40 in 10.0 mi NE 2.3 mph - N/A   Clear
3:58 AM 50.0 °F 39.0 °F 66% 30.39 in 10.0 mi ENE 4.6 mph - N/A   Clear
4:58 AM 49.1 °F 39.2 °F 69% 30.40 in 10.0 mi NE 1.2 mph - N/A   Clear
5:58 AM 49.3 °F 40.1 °F 71% 30.40 in 10.0 mi NNE 4.6 mph - N/A   Clear
6:58 AM 51.3 °F 41.4 °F 69% 30.40 in 10.0 mi Variable 2.3 mph - N/A   Clear
7:58 AM 53.4 °F 43.0 °F 68% 30.40 in 10.0 mi NE 9.2 mph - N/A   Clear
8:58 AM 55.4 °F 44.2 °F 66% 30.40 in 10.0 mi NNE 11.5 mph - N/A   Clear
9:58 AM 58.3 °F 44.2 °F 60% 30.40 in 10.0 mi NNE 9.2 mph - N/A   Clear
10:58 AM 60.4 °F 44.1 °F 55% 30.40 in 10.0 mi North 12.7 mph 20.7 mph N/A   Clear
11:58 AM 63.0 °F 43.9 °F 50% 30.38 in 10.0 mi North 13.8 mph - N/A   Clear
12:56 PM 64.4 °F 44.6 °F 49% 30.34 in 10.0 mi North 16.1 mph - N/A   Clear
1:58 PM 66.7 °F 43.9 °F 44% 30.33 in 10.0 mi North 12.7 mph 24.2 mph N/A   Clear
2:58 PM 68.2 °F 45.3 °F 44% 30.31 in 10.0 mi NNE 8.1 mph - N/A   Clear
3:58 PM 68.7 °F 43.7 °F 40% 30.30 in 10.0 mi NNE 10.4 mph - N/A   Clear
4:58 PM 69.1 °F 43.0 °F 39% 30.30 in 10.0 mi NNE 12.7 mph 19.6 mph N/A   Clear
5:58 PM 68.4 °F 43.0 °F 40% 30.27 in 10.0 mi NNE 9.2 mph - N/A   Clear
6:56 PM 68.0 °F 44.6 °F 43% 30.24 in 10.0 mi NNE 8.1 mph - N/A   Clear
7:58 PM 65.1 °F 45.3 °F 49% 30.25 in 10.0 mi NNE 8.1 mph - N/A   Clear
8:58 PM 60.3 °F 45.5 °F 58% 30.25 in 10.0 mi NNE 4.6 mph - N/A   Clear
9:58 PM 59.4 °F 44.2 °F 57% 30.25 in 10.0 mi NE 2.3 mph - N/A   Clear
10:58 PM 55.0 °F 43.2 °F 64% 30.25 in 10.0 mi WNW 1.2 mph - N/A   Clear
11:58 PM 55.8 °F 43.7 °F 64% 30.25 in 10.0 mi NNE 1.2 mph - N/A   Clear